"read_dt","SO2 (ppb)","flags","PMT voltage (V)","lamp voltage (V)","lamp intensity (Hz)","internal temp (C)","react chamber temp (C)","sample flow (l/min)","pres (mmHg)","SO2 bkg (ppb)","SO2 coefficient"
2016-07-09 00:00:00,2131E-3,5C000400,-0723,0827,12038,031.9,045.6,0.248,746.7,01.17,0.508
2016-07-09 00:01:00,2025E-3,5C000400,-0723,0827,12237,031.9,045.6,0.248,746.8,01.17,0.508
2016-07-09 00:02:00,2007E-3,5C000400,-0723,0827,12248,031.9,045.5,0.247,746.8,01.17,0.508
2016-07-09 00:03:00,2161E-3,5C000400,-0723,0827,12209,031.9,045.6,0.247,746.8,01.17,0.508
2016-07-09 00:04:00,2142E-3,5C000400,-0723,0828,12205,031.8,045.5,0.248,746.7,01.17,0.508
2016-07-09 00:05:00,2116E-3,5C000400,-0723,0827,12136,031.8,045.5,0.248,746.8,01.17,0.508
2016-07-09 00:06:00,1884E-3,5C000400,-0723,0827,12180,031.9,045.6,0.247,746.7,01.17,0.508
2016-07-09 00:07:00,1960E-3,5C000400,-0723,0827,12135,031.8,045.6,0.247,746.7,01.17,0.508
2016-07-09 00:08:00,2184E-3,5C000400,-0723,0827,12275,031.8,045.6,0.248,746.6,01.17,0.508
2016-07-09 00:09:00,1974E-3,5C000400,-0723,0827,12284,031.8,045.6,0.248,746.8,01.17,0.508
2016-07-09 00:10:00,2011E-3,5C000400,-0723,0828,12309,031.8,045.6,0.248,746.8,01.17,0.508
2016-07-09 00:11:00,2129E-3,5C000400,-0723,0828,12228,031.8,045.5,0.248,746.8,01.17,0.508
2016-07-09 00:12:00,2149E-3,5C000400,-0723,0828,12178,031.8,045.5,0.247,746.8,01.17,0.508
2016-07-09 00:13:00,2101E-3,5C000400,-0723,0828,12255,031.8,045.5,0.247,746.6,01.17,0.508
2016-07-09 00:14:00,2117E-3,5C000400,-0723,0827,12272,031.8,045.5,0.248,746.7,01.17,0.508
2016-07-09 00:15:00,2097E-3,5C000400,-0723,0829,12306,031.8,045.6,0.248,746.8,01.17,0.508
2016-07-09 00:16:00,2122E-3,5C000400,-0723,0827,12213,031.9,045.5,0.247,746.6,01.17,0.508
2016-07-09 00:17:00,2128E-3,5C000400,-0723,0827,12175,031.8,045.6,0.247,746.8,01.17,0.508
2016-07-09 00:18:00,2128E-3,5C000400,-0723,0827,12096,031.8,045.6,0.248,746.8,01.17,0.508
2016-07-09 00:19:00,2014E-3,5C000400,-0723,0828,12319,031.8,045.6,0.248,746.7,01.17,0.508
2016-07-09 00:20:00,2088E-3,5C000400,-0723,0828,12089,031.8,045.6,0.247,746.5,01.17,0.508
2016-07-09 00:21:00,2118E-3,5C000400,-0723,0828,12249,031.8,045.6,0.247,746.6,01.17,0.508
2016-07-09 00:22:00,2105E-3,5C000400,-0723,0827,12198,031.8,045.6,0.248,746.7,01.17,0.508
2016-07-09 00:23:00,2192E-3,5C000400,-0723,0827,12129,031.8,045.5,0.248,746.7,01.17,0.508
2016-07-09 00:24:00,2022E-3,5C000400,-0723,0828,12239,031.8,045.5,0.248,746.6,01.17,0.508
2016-07-09 00:25:00,2055E-3,5C000400,-0723,0827,12232,031.8,045.5,0.247,746.7,01.17,0.508
2016-07-09 00:26:00,2043E-3,5C000400,-0723,0828,12088,031.8,045.6,0.248,746.6,01.17,0.508
2016-07-09 00:27:00,2104E-3,5C000400,-0723,0828,12264,031.8,045.5,0.248,746.6,01.17,0.508
2016-07-09 00:28:00,2062E-3,5C000400,-0723,0827,12317,031.8,045.5,0.248,746.6,01.17,0.508
2016-07-09 00:29:00,2077E-3,5C000400,-0723,0827,12300,031.8,045.5,0.247,746.6,01.17,0.508
2016-07-09 00:30:00,1977E-3,5C000400,-0723,0827,12117,031.8,045.5,0.248,746.7,01.17,0.508
2016-07-09 00:31:00,2202E-3,5C000400,-0723,0827,12258,031.8,045.5,0.248,746.8,01.17,0.508
2016-07-09 00:32:00,2126E-3,5C000400,-0723,0827,12261,031.8,045.5,0.248,746.7,01.17,0.508
2016-07-09 00:33:00,2118E-3,5C000400,-0723,0827,12218,031.8,045.5,0.247,746.8,01.17,0.508
2016-07-09 00:34:00,2106E-3,5C000400,-0723,0827,12190,031.8,045.6,0.248,746.6,01.17,0.508
2016-07-09 00:35:00,2113E-3,5C000400,-0723,0828,12167,031.7,045.5,0.248,746.8,01.17,0.508
2016-07-09 00:36:00,2006E-3,5C000400,-0723,0827,12154,031.8,045.6,0.248,746.8,01.17,0.508
2016-07-09 00:37:00,2145E-3,5C000400,-0723,0828,12104,031.8,045.5,0.247,746.6,01.17,0.508
2016-07-09 00:38:00,2027E-3,5C000400,-0723,0827,12201,031.8,045.5,0.248,746.7,01.17,0.508
2016-07-09 00:39:00,2056E-3,5C000400,-0723,0827,12055,031.8,045.5,0.248,746.8,01.17,0.508
2016-07-09 00:40:00,1903E-3,5C000400,-0723,0828,12266,031.7,045.5,0.248,746.6,01.17,0.508
2016-07-09 00:41:00,2027E-3,5C000400,-0723,0826,12311,031.7,045.6,0.247,746.8,01.17,0.508
2016-07-09 00:42:00,2110E-3,5C000400,-0723,0827,12305,031.7,045.6,0.248,746.7,01.17,0.508
2016-07-09 00:43:00,2056E-3,5C000400,-0723,0828,12084,031.8,045.5,0.248,746.7,01.17,0.508
2016-07-09 00:44:00,1981E-3,5C000400,-0723,0827,12284,031.8,045.5,0.248,746.6,01.17,0.508
2016-07-09 00:45:00,2131E-3,5C000400,-0723,0827,12155,031.8,045.5,0.247,746.4,01.17,0.508
2016-07-09 00:46:00,2119E-3,5C000400,-0723,0828,12260,031.8,045.5,0.247,746.7,01.17,0.508
2016-07-09 00:47:00,2056E-3,5C000400,-0723,0827,12084,031.7,045.5,0.248,746.6,01.17,0.508
2016-07-09 00:48:00,2172E-3,5C000400,-0723,0827,12215,031.8,045.5,0.248,746.5,01.17,0.508
2016-07-09 00:49:00,1980E-3,5C000400,-0723,0827,12208,031.7,045.5,0.248,746.6,01.17,0.508
2016-07-09 00:50:00,1991E-3,5C000400,-0723,0827,12176,031.7,045.6,0.248,746.5,01.17,0.508
2016-07-09 00:51:00,2029E-3,5C000400,-0723,0827,12178,031.7,045.5,0.248,746.6,01.17,0.508
2016-07-09 00:52:00,2110E-3,5C000400,-0723,0828,12312,031.7,045.5,0.248,746.6,01.17,0.508
2016-07-09 00:53:00,2143E-3,5C000400,-0723,0828,12117,031.7,045.5,0.247,746.6,01.17,0.508
2016-07-09 00:54:00,1977E-3,5C000400,-0723,0828,12181,031.7,045.5,0.248,746.6,01.17,0.508
2016-07-09 00:55:00,2123E-3,5C000400,-0723,0827,12215,031.7,045.6,0.248,746.6,01.17,0.508
2016-07-09 00:56:00,2157E-3,5C000400,-0723,0828,12364,031.7,045.6,0.248,746.6,01.17,0.508
2016-07-09 00:57:00,2122E-3,5C000400,-0723,0827,12268,031.8,045.6,0.247,746.4,01.17,0.508
2016-07-09 00:58:00,2006E-3,5C000400,-0723,0827,12142,031.7,045.5,0.248,746.5,01.17,0.508
2016-07-09 00:59:00,2015E-3,5C000400,-0723,0827,12220,031.7,045.6,0.248,746.5,01.17,0.508
2016-07-09 01:00:00,1974E-3,5C000400,-0723,0828,12125,031.7,045.6,0.248,746.6,01.17,0.508
2016-07-09 01:01:00,1979E-3,5C000400,-0723,0827,12005,031.7,045.6,0.247,746.6,01.17,0.508
2016-07-09 01:02:00,2052E-3,5C000400,-0723,0828,12239,031.7,045.6,0.248,746.7,01.17,0.508
2016-07-09 01:03:00,2079E-3,5C000400,-0723,0828,12159,031.7,045.6,0.248,746.5,01.17,0.508
2016-07-09 01:04:00,2226E-3,5C000400,-0723,0827,12252,031.7,045.6,0.248,746.5,01.17,0.508
2016-07-09 01:05:00,1966E-3,5C000400,-0723,0827,12327,031.7,045.5,0.247,746.6,01.17,0.508
2016-07-09 01:06:00,2047E-3,5C000400,-0723,0828,12234,031.7,045.6,0.248,746.5,01.17,0.508
2016-07-09 01:07:00,1962E-3,5C000400,-0723,0827,12345,031.7,045.6,0.248,746.6,01.17,0.508
2016-07-09 01:08:00,2115E-3,5C000400,-0723,0828,12352,031.7,045.5,0.248,746.5,01.17,0.508
2016-07-09 01:09:00,2195E-3,5C000400,-0723,0828,12201,031.7,045.6,0.248,746.6,01.17,0.508
2016-07-09 01:10:00,2056E-3,5C000400,-0723,0828,12136,031.7,045.5,0.247,746.6,01.17,0.508
2016-07-09 01:11:00,2016E-3,5C000400,-0723,0827,12236,031.7,045.5,0.248,746.5,01.17,0.508
2016-07-09 01:12:00,2094E-3,5C000400,-0723,0828,12290,031.7,045.5,0.248,746.6,01.17,0.508
2016-07-09 01:13:00,2060E-3,5C000400,-0723,0827,12213,031.7,045.6,0.248,746.6,01.17,0.508
2016-07-09 01:14:00,1967E-3,5C000400,-0723,0828,12118,031.7,045.5,0.247,746.7,01.17,0.508
2016-07-09 01:15:00,2005E-3,5C000400,-0723,0827,12325,031.7,045.6,0.248,746.6,01.17,0.508
2016-07-09 01:16:00,2159E-3,5C000400,-0723,0828,12395,031.7,045.5,0.248,746.6,01.17,0.508
2016-07-09 01:17:00,2019E-3,5C000400,-0723,0828,12261,031.7,045.5,0.248,746.6,01.17,0.508
2016-07-09 01:18:00,2028E-3,5C000400,-0723,0827,12185,031.7,045.5,0.247,746.6,01.17,0.508
2016-07-09 01:19:00,2162E-3,5C000400,-0723,0829,12209,031.7,045.6,0.248,746.5,01.17,0.508
2016-07-09 01:20:00,2107E-3,5C000400,-0723,0828,12375,031.7,045.6,0.248,746.6,01.17,0.508
2016-07-09 01:21:00,2050E-3,5C000400,-0723,0827,12186,031.7,045.5,0.248,746.6,01.17,0.508
2016-07-09 01:22:00,1971E-3,5C000400,-0723,0828,12317,031.7,045.6,0.248,746.5,01.17,0.508
2016-07-09 01:23:00,2113E-3,5C000400,-0723,0828,12272,031.7,045.5,0.247,746.5,01.17,0.508
2016-07-09 01:24:00,1983E-3,5C000400,-0723,0827,12329,031.7,045.5,0.248,746.5,01.17,0.508
2016-07-09 01:25:00,2047E-3,5C000400,-0723,0827,12217,031.7,045.5,0.248,746.5,01.17,0.508
2016-07-09 01:26:00,1967E-3,5C000400,-0723,0827,12269,031.7,045.5,0.248,746.5,01.17,0.508
2016-07-09 01:27:00,2019E-3,5C000400,-0723,0827,12162,031.7,045.6,0.247,746.5,01.17,0.508
2016-07-09 01:28:00,2205E-3,5C000400,-0723,0827,12173,031.7,045.6,0.248,746.5,01.17,0.508
2016-07-09 01:29:00,1963E-3,5C000400,-0723,0827,12330,031.7,045.6,0.248,746.5,01.17,0.508
2016-07-09 01:30:00,2123E-3,5C000400,-0723,0828,12115,031.7,045.6,0.248,746.5,01.17,0.508
2016-07-09 01:31:00,2141E-3,5C000400,-0723,0828,12319,031.7,045.5,0.248,746.4,01.17,0.508
2016-07-09 01:32:00,2040E-3,5C000400,-0723,0828,12211,031.7,045.6,0.248,746.3,01.17,0.508
2016-07-09 01:33:00,2114E-3,5C000400,-0723,0828,12188,031.7,045.5,0.248,746.5,01.17,0.508
2016-07-09 01:34:00,2063E-3,5C000400,-0723,0827,12218,031.7,045.5,0.248,746.5,01.17,0.508
2016-07-09 01:35:00,2144E-3,5C000400,-0723,0827,12255,031.7,045.5,0.248,746.5,01.17,0.508
2016-07-09 01:36:00,1996E-3,5C000400,-0723,0827,12266,031.7,045.5,0.247,746.5,01.17,0.508
2016-07-09 01:37:00,2023E-3,5C000400,-0723,0827,12270,031.7,045.5,0.248,746.4,01.17,0.508
2016-07-09 01:38:00,2013E-3,5C000400,-0723,0827,12251,031.7,045.6,0.248,746.3,01.17,0.508
2016-07-09 01:39:00,1994E-3,5C000400,-0723,0827,12265,031.7,045.6,0.248,746.4,01.17,0.508
2016-07-09 01:40:00,2167E-3,5C000400,-0723,0828,12191,031.7,045.6,0.247,746.5,01.17,0.508
2016-07-09 01:41:00,2124E-3,5C000400,-0723,0827,12122,031.7,045.6,0.248,746.4,01.17,0.508
2016-07-09 01:42:00,2163E-3,5C000400,-0723,0827,12200,031.7,045.6,0.248,746.5,01.17,0.508
2016-07-09 01:43:00,1995E-3,5C000400,-0723,0827,12282,031.7,045.6,0.248,746.5,01.17,0.508
2016-07-09 01:44:00,2168E-3,5C000400,-0723,0827,12191,031.7,045.5,0.248,746.5,01.17,0.508
2016-07-09 01:45:00,2064E-3,5C000400,-0723,0828,12412,031.7,045.5,0.247,746.5,01.17,0.508
2016-07-09 01:46:00,2051E-3,5C000400,-0723,0828,12267,031.7,045.6,0.248,746.5,01.17,0.508
2016-07-09 01:47:00,2116E-3,5C000400,-0723,0828,12128,031.7,045.6,0.248,746.5,01.17,0.508
2016-07-09 01:48:00,2094E-3,5C000400,-0723,0827,12103,031.7,045.5,0.248,746.4,01.17,0.508
2016-07-09 01:49:00,2034E-3,5C000400,-0723,0827,12215,031.7,045.5,0.248,746.5,01.17,0.508
2016-07-09 01:50:00,2159E-3,5C000400,-0723,0826,12139,031.7,045.6,0.248,746.5,01.17,0.508
2016-07-09 01:51:00,2028E-3,5C000400,-0723,0827,12255,031.7,045.5,0.248,746.4,01.17,0.508
2016-07-09 01:52:00,2194E-3,5C000400,-0723,0827,12071,031.7,045.5,0.248,746.5,01.17,0.508
2016-07-09 01:53:00,2234E-3,5C000400,-0723,0828,12164,031.7,045.5,0.247,746.5,01.17,0.508
2016-07-09 01:54:00,2076E-3,5C000400,-0723,0827,12236,031.7,045.5,0.248,746.5,01.17,0.508
2016-07-09 01:55:00,2071E-3,5C000400,-0723,0828,12209,031.7,045.5,0.248,746.3,01.17,0.508
2016-07-09 01:56:00,2119E-3,5C000400,-0723,0827,12114,031.6,045.5,0.248,746.4,01.17,0.508
2016-07-09 01:57:00,2166E-3,5C000400,-0723,0827,12298,031.7,045.5,0.247,746.5,01.17,0.508
2016-07-09 01:58:00,2074E-3,5C000400,-0723,0829,12123,031.7,045.5,0.248,746.5,01.17,0.508
2016-07-09 01:59:00,1972E-3,5C000400,-0723,0827,12323,031.7,045.5,0.248,746.5,01.17,0.508
2016-07-09 02:00:00,2106E-3,5C000400,-0723,0828,12255,031.7,045.6,0.248,746.5,01.17,0.508
2016-07-09 02:01:00,1975E-3,5C000400,-0723,0827,12079,031.7,045.5,0.248,746.4,01.17,0.508
2016-07-09 02:02:00,2103E-3,5C000400,-0723,0827,12320,031.7,045.5,0.248,746.5,01.17,0.508
2016-07-09 02:03:00,2008E-3,5C000400,-0723,0827,12190,031.7,045.5,0.248,746.4,01.17,0.508
2016-07-09 02:04:00,2012E-3,5C000400,-0723,0827,12169,031.6,045.5,0.248,746.6,01.17,0.508
2016-07-09 02:05:00,2214E-3,5C000400,-0723,0827,12283,031.7,045.5,0.248,746.5,01.17,0.508
2016-07-09 02:06:00,2125E-3,5C000400,-0723,0827,12213,031.7,045.5,0.248,746.4,01.17,0.508
2016-07-09 02:07:00,2130E-3,5C000400,-0723,0828,12329,031.6,045.6,0.248,746.5,01.17,0.508
2016-07-09 02:08:00,2008E-3,5C000400,-0723,0829,12190,031.7,045.6,0.248,746.5,01.17,0.508
2016-07-09 02:09:00,2082E-3,5C000400,-0723,0827,12119,031.6,045.5,0.248,746.5,01.17,0.508
2016-07-09 02:10:00,2162E-3,5C000400,-0723,0827,12349,031.7,045.5,0.247,746.5,01.17,0.508
2016-07-09 02:11:00,2079E-3,5C000400,-0723,0828,12245,031.6,045.5,0.248,746.5,01.17,0.508
2016-07-09 02:12:00,2144E-3,5C000400,-0723,0828,12213,031.6,045.5,0.248,746.4,01.17,0.508
2016-07-09 02:13:00,1991E-3,5C000400,-0723,0827,12332,031.6,045.5,0.248,746.5,01.17,0.508
2016-07-09 02:14:00,1944E-3,5C000400,-0723,0827,12276,031.7,045.6,0.248,746.6,01.17,0.508
2016-07-09 02:15:00,2072E-3,5C000400,-0723,0827,12233,031.7,045.5,0.247,746.5,01.17,0.508
2016-07-09 02:16:00,1979E-3,5C000400,-0723,0827,12226,031.6,045.6,0.248,746.6,01.17,0.508
2016-07-09 02:17:00,2002E-3,5C000400,-0723,0827,12275,031.6,045.6,0.248,746.6,01.17,0.508
2016-07-09 02:18:00,2055E-3,5C000400,-0723,0827,12038,031.7,045.6,0.248,746.5,01.17,0.508
2016-07-09 02:19:00,2144E-3,5C000400,-0723,0826,12168,031.6,045.5,0.248,746.5,01.17,0.508
2016-07-09 02:20:00,2182E-3,5C000400,-0723,0827,12321,031.7,045.5,0.248,746.5,01.17,0.508
2016-07-09 02:21:00,2122E-3,5C000400,-0723,0827,12037,031.6,045.5,0.248,746.5,01.17,0.508
2016-07-09 02:22:00,2205E-3,5C000400,-0723,0828,12132,031.7,045.6,0.248,746.5,01.17,0.508
2016-07-09 02:23:00,2059E-3,5C000400,-0723,0827,12411,031.6,045.6,0.248,746.5,01.17,0.508
2016-07-09 02:24:00,1942E-3,5C000400,-0723,0828,12279,031.6,045.6,0.247,746.4,01.17,0.508
2016-07-09 02:25:00,2187E-3,5C000400,-0723,0827,12266,031.6,045.5,0.248,746.5,01.17,0.508
2016-07-09 02:26:00,2057E-3,5C000400,-0723,0827,12309,031.7,045.5,0.248,746.5,01.17,0.508
2016-07-09 02:27:00,2042E-3,5C000400,-0723,0828,12271,031.6,045.6,0.248,746.4,01.17,0.508
2016-07-09 02:28:00,2056E-3,5C000400,-0723,0828,12333,031.6,045.5,0.248,746.4,01.17,0.508
2016-07-09 02:29:00,2061E-3,5C000400,-0723,0827,12223,031.6,045.5,0.248,746.5,01.17,0.508
2016-07-09 02:30:00,2019E-3,5C000400,-0723,0827,12109,031.6,045.5,0.248,746.4,01.17,0.508
2016-07-09 02:31:00,2122E-3,5C000400,-0723,0827,12204,031.6,045.5,0.248,746.5,01.17,0.508
2016-07-09 02:32:00,2043E-3,5C000400,-0723,0827,12262,031.6,045.5,0.248,746.5,01.17,0.508
2016-07-09 02:33:00,2073E-3,5C000400,-0723,0827,12291,031.6,045.5,0.247,746.4,01.17,0.508
2016-07-09 02:34:00,2025E-3,5C000400,-0723,0827,12233,031.6,045.6,0.248,746.4,01.17,0.508
2016-07-09 02:35:00,1963E-3,5C000400,-0723,0827,12200,031.7,045.6,0.248,746.5,01.17,0.508
2016-07-09 02:36:00,2189E-3,5C000400,-0723,0827,12143,031.6,045.5,0.248,746.5,01.17,0.508
2016-07-09 02:37:00,2117E-3,5C000400,-0723,0828,12107,031.6,045.5,0.248,746.5,01.17,0.508
2016-07-09 02:38:00,2036E-3,5C000400,-0723,0827,12194,031.6,045.6,0.248,746.5,01.17,0.508
2016-07-09 02:39:00,2120E-3,5C000400,-0723,0827,12207,031.6,045.6,0.248,746.6,01.17,0.508
2016-07-09 02:40:00,1970E-3,5C000400,-0723,0827,12286,031.6,045.6,0.248,746.5,01.17,0.508
2016-07-09 02:41:00,2144E-3,5C000400,-0723,0828,12303,031.6,045.6,0.248,746.5,01.17,0.508
2016-07-09 02:42:00,2059E-3,5C000400,-0723,0828,12362,031.6,045.5,0.248,746.5,01.17,0.508
2016-07-09 02:43:00,2092E-3,5C000400,-0723,0827,12254,031.6,045.6,0.248,746.5,01.17,0.508
2016-07-09 02:44:00,2240E-3,5C000400,-0723,0827,12159,031.6,045.5,0.248,746.5,01.17,0.508
2016-07-09 02:45:00,2090E-3,5C000400,-0723,0827,12298,031.6,045.5,0.248,746.5,01.17,0.508
2016-07-09 02:46:00,2116E-3,5C000400,-0723,0827,12182,031.6,045.5,0.248,746.5,01.17,0.508
2016-07-09 02:47:00,2082E-3,5C000400,-0723,0827,12206,031.6,045.5,0.248,746.5,01.17,0.508
2016-07-09 02:48:00,2110E-3,5C000400,-0723,0828,12250,031.6,045.5,0.248,746.5,01.17,0.508
2016-07-09 02:49:00,2015E-3,5C000400,-0723,0828,12192,031.6,045.5,0.249,746.3,01.17,0.508
2016-07-09 02:50:00,2023E-3,5C000400,-0723,0827,12216,031.6,045.6,0.248,746.5,01.17,0.508
2016-07-09 02:51:00,2104E-3,5C000400,-0723,0827,12144,031.6,045.5,0.248,746.4,01.17,0.508
2016-07-09 02:52:00,2043E-3,5C000400,-0723,0827,12058,031.6,045.5,0.248,746.4,01.17,0.508
2016-07-09 02:53:00,2101E-3,5C000400,-0723,0828,12220,031.6,045.5,0.248,746.5,01.17,0.508
2016-07-09 02:54:00,2112E-3,5C000400,-0723,0827,12288,031.6,045.6,0.248,746.3,01.17,0.508
2016-07-09 02:55:00,2158E-3,5C000400,-0723,0827,12391,031.6,045.6,0.248,746.5,01.17,0.508
2016-07-09 02:56:00,2068E-3,5C000400,-0723,0828,12285,031.6,045.6,0.248,746.4,01.17,0.508
2016-07-09 02:57:00,2001E-3,5C000400,-0723,0827,12153,031.6,045.5,0.248,746.4,01.17,0.508
2016-07-09 02:58:00,2053E-3,5C000400,-0723,0827,12260,031.6,045.5,0.248,746.5,01.17,0.508
2016-07-09 02:59:00,2076E-3,5C000400,-0723,0827,12301,031.6,045.5,0.248,746.5,01.17,0.508
2016-07-09 03:00:00,1924E-3,5C000400,-0723,0828,12148,031.6,045.5,0.248,746.2,01.17,0.508
2016-07-09 03:01:00,2039E-3,5C000400,-0723,0827,12355,031.6,045.5,0.248,746.4,01.17,0.508
2016-07-09 03:02:00,2052E-3,5C000400,-0723,0827,12122,031.6,045.5,0.248,746.3,01.17,0.508
2016-07-09 03:03:00,2076E-3,5C000400,-0723,0827,12301,031.6,045.5,0.248,746.2,01.17,0.508
2016-07-09 03:04:00,2209E-3,5C000400,-0723,0828,12138,031.6,045.5,0.248,746.4,01.17,0.508
2016-07-09 03:05:00,1823E-3,5C000400,-0723,0827,12240,031.6,045.5,0.248,746.4,01.17,0.508
2016-07-09 03:06:00,2201E-3,5C000400,-0723,0827,12223,031.6,045.5,0.248,746.4,01.17,0.508
2016-07-09 03:07:00,2076E-3,5C000400,-0723,0827,12251,031.6,045.5,0.248,746.5,01.17,0.508
2016-07-09 03:08:00,1927E-3,5C000400,-0723,0827,12112,031.6,045.5,0.248,746.4,01.17,0.508
2016-07-09 03:09:00,1978E-3,5C000400,-0723,0827,12282,031.6,045.5,0.248,746.5,01.17,0.508
2016-07-09 03:10:00,2008E-3,5C000400,-0723,0828,12176,031.6,045.5,0.248,746.5,01.17,0.508
2016-07-09 03:11:00,2134E-3,5C000400,-0723,0827,12293,031.6,045.5,0.248,746.4,01.17,0.508
2016-07-09 03:12:00,2125E-3,5C000400,-0723,0827,12300,031.6,045.5,0.248,746.5,01.17,0.508
2016-07-09 03:13:00,1959E-3,5C000400,-0723,0827,12065,031.6,045.5,0.248,746.5,01.17,0.508
2016-07-09 03:14:00,2069E-3,5C000400,-0723,0827,12252,031.6,045.5,0.248,746.5,01.17,0.508
2016-07-09 03:15:00,2022E-3,5C000400,-0723,0827,12175,031.6,045.5,0.248,746.4,01.17,0.508
2016-07-09 03:16:00,2172E-3,5C000400,-0723,0827,12137,031.6,045.5,0.248,746.4,01.17,0.508
2016-07-09 03:17:00,1975E-3,5C000400,-0723,0827,12149,031.6,045.5,0.248,746.4,01.17,0.508
2016-07-09 03:18:00,1946E-3,5C000400,-0723,0827,12359,031.6,045.5,0.248,746.4,01.17,0.508
2016-07-09 03:19:00,2011E-3,5C000400,-0723,0827,12361,031.6,045.5,0.248,746.3,01.17,0.508
2016-07-09 03:20:00,1998E-3,5C000400,-0723,0827,12146,031.6,045.5,0.248,746.3,01.17,0.508
2016-07-09 03:21:00,2215E-3,5C000400,-0723,0827,12167,031.6,045.6,0.248,746.1,01.17,0.508
2016-07-09 03:22:00,2074E-3,5C000400,-0723,0827,12319,031.5,045.6,0.248,746.2,01.17,0.508
2016-07-09 03:23:00,2100E-3,5C000400,-0723,0827,12051,031.6,045.5,0.248,746.4,01.17,0.508
2016-07-09 03:24:00,2100E-3,5C000400,-0723,0827,12147,031.6,045.5,0.248,746.3,01.17,0.508
2016-07-09 03:25:00,2166E-3,5C000400,-0723,0827,12263,031.6,045.5,0.248,746.5,01.17,0.508
2016-07-09 03:26:00,2135E-3,5C000400,-0723,0828,12073,031.6,045.5,0.248,746.5,01.17,0.508
2016-07-09 03:27:00,2125E-3,5C000400,-0723,0827,12240,031.6,045.5,0.248,746.5,01.17,0.508
2016-07-09 03:28:00,2057E-3,5C000400,-0723,0827,12213,031.6,045.5,0.248,746.5,01.17,0.508
2016-07-09 03:29:00,2003E-3,5C000400,-0723,0827,12298,031.6,045.6,0.248,746.5,01.17,0.508
2016-07-09 03:30:00,1975E-3,5C000400,-0723,0827,12300,031.5,045.5,0.248,746.5,01.17,0.508
2016-07-09 03:31:00,1951E-3,5C000400,-0723,0828,12261,031.6,045.5,0.248,746.6,01.17,0.508
2016-07-09 03:32:00,2161E-3,5C000400,-0723,0828,12124,031.6,045.5,0.248,746.5,01.17,0.508
2016-07-09 03:33:00,1945E-3,5C000400,-0723,0827,12201,031.6,045.5,0.248,746.5,01.17,0.508
2016-07-09 03:34:00,1969E-3,5C000400,-0723,0827,12250,031.6,045.5,0.248,746.6,01.17,0.508
2016-07-09 03:35:00,2001E-3,5C000400,-0723,0827,12192,031.6,045.6,0.248,746.6,01.17,0.508
2016-07-09 03:36:00,1966E-3,5C000400,-0723,0828,12098,031.6,045.5,0.248,746.4,01.17,0.508
2016-07-09 03:37:00,2303E-3,5C000400,-0723,0827,12208,031.6,045.5,0.248,746.4,01.17,0.508
2016-07-09 03:38:00,2027E-3,5C000400,-0723,0828,12279,031.5,045.6,0.248,746.5,01.17,0.508
2016-07-09 03:39:00,2146E-3,5C000400,-0723,0828,12192,031.5,045.6,0.248,746.5,01.17,0.508
2016-07-09 03:40:00,2151E-3,5C000400,-0723,0827,12280,031.5,045.5,0.248,746.5,01.17,0.508
2016-07-09 03:41:00,1991E-3,5C000400,-0723,0827,12278,031.6,045.5,0.248,746.5,01.17,0.508
2016-07-09 03:42:00,2088E-3,5C000400,-0723,0827,12308,031.6,045.6,0.248,746.4,01.17,0.508
2016-07-09 03:43:00,2064E-3,5C000400,-0723,0828,12151,031.6,045.5,0.248,746.5,01.17,0.508
2016-07-09 03:44:00,2045E-3,5C000400,-0723,0828,12240,031.6,045.5,0.248,746.3,01.17,0.508
2016-07-09 03:45:00,2128E-3,5C000400,-0723,0828,12181,031.5,045.5,0.248,746.4,01.17,0.508
2016-07-09 03:46:00,2090E-3,5C000400,-0723,0826,12287,031.6,045.5,0.248,746.5,01.17,0.508
2016-07-09 03:47:00,1957E-3,5C000400,-0723,0828,12296,031.5,045.5,0.248,746.3,01.17,0.508
2016-07-09 03:48:00,1976E-3,5C000400,-0723,0828,12082,031.6,045.5,0.248,746.4,01.17,0.508
2016-07-09 03:49:00,2019E-3,5C000400,-0723,0828,12219,031.5,045.5,0.249,746.5,01.17,0.508
2016-07-09 03:50:00,2182E-3,5C000400,-0723,0827,12047,031.5,045.5,0.248,746.3,01.17,0.508
2016-07-09 03:51:00,2163E-3,5C000400,-0723,0827,12395,031.6,045.6,0.247,746.4,01.17,0.508
2016-07-09 03:52:00,2025E-3,5C000400,-0723,0827,12332,031.5,045.6,0.248,746.3,01.17,0.508
2016-07-09 03:53:00,2157E-3,5C000400,-0723,0828,12130,031.5,045.5,0.248,746.4,01.17,0.508
2016-07-09 03:54:00,2022E-3,5C000400,-0723,0828,12270,031.6,045.5,0.248,746.4,01.17,0.508
2016-07-09 03:55:00,2110E-3,5C000400,-0723,0828,12180,031.5,045.5,0.248,746.5,01.17,0.508
2016-07-09 03:56:00,2146E-3,5C000400,-0723,0827,12366,031.6,045.5,0.248,746.3,01.17,0.508
2016-07-09 03:57:00,2012E-3,5C000400,-0723,0828,12066,031.5,045.5,0.248,746.3,01.17,0.508
2016-07-09 03:58:00,2140E-3,5C000400,-0723,0828,12243,031.5,045.6,0.248,746.5,01.17,0.508
2016-07-09 03:59:00,1959E-3,5C000400,-0723,0828,12096,031.5,045.5,0.248,746.5,01.17,0.508
2016-07-09 04:00:00,1987E-3,5C000400,-0723,0827,12198,031.6,045.5,0.248,746.5,01.17,0.508
2016-07-09 04:01:00,2183E-3,5C000400,-0723,0827,12294,031.6,045.5,0.248,746.4,01.17,0.508
2016-07-09 04:02:00,2200E-3,5C000400,-0723,0828,12265,031.5,045.5,0.248,746.3,01.17,0.508
2016-07-09 04:03:00,2008E-3,5C000400,-0723,0828,12229,031.5,045.5,0.248,746.3,01.17,0.508
2016-07-09 04:04:00,2057E-3,5C000400,-0723,0828,12258,031.5,045.5,0.248,746.5,01.17,0.508
2016-07-09 04:05:00,2020E-3,5C000400,-0723,0827,12147,031.6,045.5,0.248,746.4,01.17,0.508
2016-07-09 04:06:00,2044E-3,5C000400,-0723,0827,12077,031.5,045.5,0.248,746.3,01.17,0.508
2016-07-09 04:07:00,2093E-3,5C000400,-0723,0827,12317,031.5,045.5,0.248,746.3,01.17,0.508
2016-07-09 04:08:00,2077E-3,5C000400,-0723,0827,12299,031.5,045.5,0.248,746.3,01.17,0.508
2016-07-09 04:09:00,2216E-3,5C000400,-0723,0828,12169,031.5,045.5,0.248,746.4,01.17,0.508
2016-07-09 04:10:00,1949E-3,5C000400,-0723,0828,12277,031.6,045.5,0.248,746.4,01.17,0.508
2016-07-09 04:11:00,2092E-3,5C000400,-0723,0828,12332,031.5,045.6,0.248,746.4,01.17,0.508
2016-07-09 04:12:00,2003E-3,5C000400,-0723,0827,12181,031.5,045.5,0.248,746.5,01.17,0.508
2016-07-09 04:13:00,2181E-3,5C000400,-0723,0828,12186,031.5,045.5,0.248,746.4,01.17,0.508
2016-07-09 04:14:00,2051E-3,5C000400,-0723,0827,12130,031.5,045.5,0.248,746.4,01.17,0.508
2016-07-09 04:15:00,2161E-3,5C000400,-0723,0827,12261,031.5,045.5,0.248,746.6,01.17,0.508
2016-07-09 04:16:00,2173E-3,5C000400,-0723,0828,12002,031.6,045.6,0.248,746.4,01.17,0.508
2016-07-09 04:17:00,2108E-3,5C000400,-0723,0828,12229,031.5,045.5,0.248,746.5,01.17,0.508
2016-07-09 04:18:00,2174E-3,5C000400,-0723,0828,12247,031.6,045.5,0.248,746.4,01.17,0.508
2016-07-09 04:19:00,2057E-3,5C000400,-0723,0827,12131,031.5,045.5,0.248,746.4,01.17,0.508
2016-07-09 04:20:00,2182E-3,5C000400,-0723,0828,12216,031.5,045.5,0.248,746.4,01.17,0.508